Weather History for Williams, AZ

Change the Weather History Date:

Wednesday, February 20, 2013

  Actual Average (KFLG) Record (KFLG)
Temperature  
Mean Temperature 26 °F 33 °F  
Max Temperature 32 °F 46 °F 65 °F (1977)
Min Temperature 19 °F 20 °F -11 °F (1955)
Degree Days  
Heating Degree Days 40 32  
Month to date heating degree days 669  
Since 1 July heating degree days 4585  
Cooling Degree Days 0 0  
Month to date cooling degree days 0  
Year to date cooling degree days 0  
Moisture  
Dew Point 21 °F    
Average Humidity 81    
Maximum Humidity 100    
Minimum Humidity 64    
Precipitation  
Precipitation 0.00 in 0.08 in 1.18 in (1993)
Month to date precipitation 1.51  
Year to date precipitation 3.56  
Snow  
Snow 0.00 in 0.70 in 8.70 in (1987)
Month to date snowfall 15.5  
Since 1 July snowfall 67.8  
Snow Depth -    
Sea Level Pressure  
Sea Level Pressure 29.67 in    
Wind  
Wind Speed 12 mph (SSW)    
Max Wind Speed 21 mph    
Max Gust Speed 32 mph    
Visibility 6 miles    
Events      
T = Trace of Precipitation, MM = Missing Value Source: NWS Daily Summary

Daily Weather History Graph

Daily Weather History Graph

Search for Another Location

Airport:

Trip Planner

Search our weather history database for the weather conditions in past years. The results will help you decide how hot, cold, wet, or windy it might be!

Date:

Astronomy

Feb. 20, 2013 Rise Set
Actual Time 7:09 AM MST 6:16 PM MST
Civil Twilight 6:43 AM MST 6:42 PM MST
Nautical Twilight 6:13 AM MST 7:11 PM MST
Astronomical Twilight 5:44 AM MST 7:41 PM MST
Moon 1:47 PM MST (2/20) 3:25 AM MST (2/20)
Length of Visible Light 11h 58m
Length of Day
11h 07m
Waxing Gibbous, 76% of the Moon is Illuminated
Feb 20
Waxing Gibbous
Feb 25
Full
Mar 4
Last Quarter
Mar 11
New
Mar 19
First Quarter

Hourly Weather History & Observations

Time (MST) Temp. Windchill Dew Point Humidity Pressure Visibility Wind Dir Wind Speed Gust Speed Precip Events Conditions
12:15 AM 32.0 °F 21.2 °F 23.0 °F 69% 29.65 in 10.0 mi SSW 16.1 mph 25.3 mph N/A   Partly Cloudy
12:35 AM 32.0 °F 19.8 °F 23.0 °F 69% 29.65 in 10.0 mi South 20.7 mph 32.2 mph N/A   Partly Cloudy
12:55 AM 32.0 °F 20.1 °F 23.0 °F 69% 29.65 in 10.0 mi South 19.6 mph 28.8 mph N/A   Partly Cloudy
1:15 AM 32.0 °F 22.1 °F 24.8 °F 75% 29.65 in 10.0 mi South 13.8 mph 27.6 mph N/A   Mostly Cloudy
1:55 AM 32.0 °F 21.2 °F 24.8 °F 75% 29.65 in 4.0 mi South 16.1 mph 26.5 mph N/A   Mostly Cloudy
2:15 AM 32.0 °F 22.1 °F 24.8 °F 75% 29.65 in 7.0 mi South 13.8 mph 23.0 mph N/A   Mostly Cloudy
2:35 AM 28.4 °F 16.2 °F 23.0 °F 80% 29.64 in 1.5 mi South 17.3 mph 24.2 mph N/A   Overcast
2:55 AM 28.4 °F 17.0 °F 23.0 °F 80% 29.63 in 6.0 mi South 15.0 mph 19.6 mph N/A   Mostly Cloudy
3:15 AM 28.4 °F 18.0 °F 23.0 °F 80% 29.63 in 1.5 mi SSW 12.7 mph 23.0 mph N/A   Overcast
3:35 AM 28.4 °F 18.5 °F 23.0 °F 80% 29.62 in 3.0 mi SSW 11.5 mph 17.3 mph N/A   Overcast
3:55 AM 26.6 °F 18.2 °F 23.0 °F 86% 29.62 in 1.0 mi SSW 8.1 mph - N/A   Overcast
4:15 AM 26.6 °F 18.2 °F 24.8 °F 93% 29.61 in 0.2 mi SSW 8.1 mph 17.3 mph N/A   Overcast
4:35 AM 26.6 °F 17.5 °F 24.8 °F 93% 29.60 in 0.5 mi South 9.2 mph - N/A   Overcast
4:55 AM 26.6 °F 15.2 °F 24.8 °F 93% 29.60 in 1.8 mi SSW 13.8 mph 20.7 mph N/A   Overcast
5:15 AM 28.4 °F 17.0 °F 24.8 °F 86% 29.60 in 5.0 mi SSW 15.0 mph 24.2 mph N/A   Overcast
5:35 AM 26.6 °F 14.7 °F 23.0 °F 86% 29.60 in 5.0 mi South 15.0 mph 26.5 mph N/A   Overcast
5:55 AM 26.6 °F 13.4 °F 23.0 °F 86% 29.60 in 10.0 mi South 18.4 mph 23.0 mph N/A   Mostly Cloudy
6:15 AM 26.6 °F 14.3 °F 23.0 °F 86% 29.59 in 7.0 mi South 16.1 mph 25.3 mph N/A   Mostly Cloudy
6:35 AM 26.6 °F 15.7 °F 21.2 °F 80% 29.60 in 10.0 mi South 12.7 mph 24.2 mph N/A   Scattered Clouds
6:55 AM 26.6 °F 16.2 °F 21.2 °F 80% 29.60 in 10.0 mi South 11.5 mph 21.9 mph N/A   Mostly Cloudy
7:15 AM 26.6 °F 20.0 °F 21.2 °F 80% 29.61 in 10.0 mi South 5.8 mph - N/A   Overcast
7:35 AM 26.6 °F 18.2 °F 19.4 °F 74% 29.62 in 10.0 mi South 8.1 mph 17.3 mph N/A   Overcast
7:55 AM 24.8 °F 16.9 °F 19.4 °F 80% 29.62 in 10.0 mi SSW 6.9 mph - N/A   Overcast
8:15 AM 26.6 °F 17.5 °F 17.6 °F 69% 29.61 in 10.0 mi South 9.2 mph - N/A   Scattered Clouds
8:35 AM 26.6 °F 14.3 °F 17.6 °F 69% 29.62 in 10.0 mi South 16.1 mph 21.9 mph N/A   Partly Cloudy
8:55 AM 26.6 °F 15.7 °F 19.4 °F 74% 29.63 in 10.0 mi SSW 12.7 mph 21.9 mph N/A   Mostly Cloudy
9:15 AM 26.6 °F 15.7 °F 17.6 °F 69% 29.64 in 10.0 mi South 12.7 mph 19.6 mph N/A   Mostly Cloudy
9:35 AM 26.6 °F 15.2 °F 17.6 °F 69% 29.64 in 9.0 mi South 13.8 mph 19.6 mph N/A   Mostly Cloudy
9:55 AM 26.6 °F 16.2 °F 19.4 °F 74% 29.64 in 10.0 mi South 11.5 mph - N/A   Partly Cloudy
10:15 AM 26.6 °F 17.5 °F 17.6 °F 69% 29.64 in 9.0 mi SSW 9.2 mph - N/A   Clear
10:35 AM 28.4 °F 21.2 °F 19.4 °F 69% 29.64 in 3.0 mi WSW 6.9 mph - N/A   Scattered Clouds
10:55 AM 28.4 °F 22.2 °F 21.2 °F 74% 29.64 in 10.0 mi South 5.8 mph - N/A   Mostly Cloudy
11:15 AM 28.4 °F 22.2 °F 19.4 °F 69% 29.65 in 10.0 mi SSW 5.8 mph - N/A   Overcast
11:35 AM 28.4 °F 21.2 °F 19.4 °F 69% 29.65 in 10.0 mi SSW 6.9 mph - N/A   Mostly Cloudy
11:55 AM 30.2 °F 24.3 °F 19.4 °F 64% 29.64 in 10.0 mi South 5.8 mph - N/A   Mostly Cloudy
12:15 PM 30.2 °F 24.3 °F 19.4 °F 64% 29.64 in 10.0 mi SW 5.8 mph - N/A   Overcast
12:35 PM 30.2 °F 24.3 °F 19.4 °F 64% 29.63 in 10.0 mi SW 5.8 mph - N/A   Overcast
12:55 PM 28.4 °F 22.2 °F 23.0 °F 80% 29.63 in 2.5 mi ESE 5.8 mph - N/A   Overcast
1:15 PM 26.6 °F 21.2 °F 23.0 °F 86% 29.64 in 1.5 mi WSW 4.6 mph - N/A   Overcast
1:35 PM 26.6 °F 21.2 °F 24.8 °F 93% 29.64 in 0.2 mi SW 4.6 mph - N/A   Overcast
1:55 PM 26.6 °F - 23.0 °F 86% 29.64 in 0.5 mi Calm Calm - N/A   Overcast
2:15 PM 26.6 °F 18.2 °F 23.0 °F 86% 29.64 in 0.5 mi SSW 8.1 mph - N/A   Overcast
2:35 PM 24.8 °F 16.9 °F 23.0 °F 93% 29.64 in 0.8 mi SW 6.9 mph - N/A   Overcast
2:55 PM 26.6 °F 19.1 °F 21.2 °F 80% 29.65 in 3.0 mi SW 6.9 mph - N/A   Overcast
3:15 PM 26.6 °F 18.2 °F 21.2 °F 80% 29.66 in 3.0 mi SW 8.1 mph - N/A   Overcast
3:35 PM 26.6 °F 20.0 °F 21.2 °F 80% 29.67 in 1.2 mi SW 5.8 mph - N/A   Overcast
4:15 PM 24.8 °F 16.9 °F 23.0 °F 93% 29.68 in 0.5 mi SW 6.9 mph - N/A   Overcast
4:35 PM 24.8 °F 14.6 °F 19.4 °F 80% 29.68 in 0.5 mi SSW 10.4 mph 17.3 mph N/A   Overcast
4:55 PM 23.0 °F 13.9 °F 19.4 °F 86% 29.69 in 0.5 mi SSW 8.1 mph - N/A   Overcast
5:15 PM 23.0 °F 13.1 °F 17.6 °F 80% 29.69 in 2.0 mi SSW 9.2 mph - N/A   Overcast
5:35 PM 21.2 °F 10.1 °F 15.8 °F 80% 29.70 in 5.0 mi SSW 10.4 mph - N/A   Overcast
5:55 PM 19.4 °F 7.2 °F 15.8 °F 86% 29.71 in 10.0 mi SSW 11.5 mph 16.1 mph N/A   Overcast
6:15 PM 19.4 °F 10.4 °F 15.8 °F 86% 29.72 in 10.0 mi SSW 6.9 mph - N/A   Overcast
6:35 PM 19.4 °F 10.4 °F 15.8 °F 86% 29.73 in 10.0 mi South 6.9 mph - N/A   Overcast
6:55 PM 19.4 °F 12.8 °F 15.8 °F 86% 29.74 in 10.0 mi WSW 4.6 mph - N/A   Overcast
7:15 PM 19.4 °F 12.8 °F 15.8 °F 86% 29.76 in 10.0 mi SW 4.6 mph - N/A   Overcast
7:35 PM 21.2 °F 14.9 °F 17.6 °F 86% 29.76 in 10.0 mi South 4.6 mph - N/A   Overcast
8:15 PM 23.0 °F 14.7 °F 17.6 °F 80% 29.77 in 10.0 mi SW 6.9 mph - N/A   Unknown
8:35 PM 23.0 °F 13.1 °F 17.6 °F 80% 29.78 in 7.0 mi SW 9.2 mph - N/A   Overcast
8:55 PM 23.0 °F 12.4 °F 19.4 °F 86% 29.78 in 10.0 mi SW 10.4 mph - N/A   Overcast
9:35 PM 23.0 °F 15.8 °F 21.2 °F 93% 29.80 in 7.0 mi WSW 5.8 mph - N/A   Overcast
9:55 PM 23.0 °F 15.8 °F 23.0 °F 100% 29.81 in 3.0 mi West 5.8 mph - N/A   Unknown
10:15 PM 23.0 °F 13.9 °F 21.2 °F 93% 29.82 in 7.0 mi West 8.1 mph - N/A   Overcast
10:35 PM 23.0 °F 13.1 °F 21.2 °F 93% 29.83 in 5.0 mi WSW 9.2 mph - N/A   Overcast
10:55 PM 23.0 °F 13.1 °F 21.2 °F 93% 29.84 in 7.0 mi West 9.2 mph - N/A   Overcast
11:15 PM 23.0 °F 13.9 °F 21.2 °F 93% 29.84 in 10.0 mi West 8.1 mph - N/A   Overcast
11:35 PM 23.0 °F 14.7 °F 21.2 °F 93% 29.84 in 10.0 mi West 6.9 mph - N/A   Mostly Cloudy
11:55 PM 23.0 °F 14.7 °F 23.0 °F 100% 29.84 in 10.0 mi West 6.9 mph - N/A   Overcast